Date String (YYYY-MM-DD hh:mm:ss) UTC,Instrument flags,Ambient pressure (hPa),Sample flow (lpm),Bypass flow (lpm),Sample temperature (°C),Ambient temperature (°C),ASC tube jacket temperature (°C),LED temperature (°C),Box temperature (°C),Sample RH (%),Span deviation,Mass concentration (μg/m³),Mass concentration (μg/m³),Mass concentration (μg/m³)
DateTimeUTC,F1_M11,P_M11,Q1_M11,Q2_M11,T1_M11,T2_M11,T3_M11,T4_M11,T5_M11,U1_M11,ZSPAN_M11,X2_M11,X0_M11,X1_M11
2023-03-01 09:00:00,,0815.8,5.01,0.00,22.4,21.6,00.0,31.0,24.1,04.9,0000.0,0001.14,0003.31,0000.75
2023-03-01 09:01:00,,0815.8,5.00,0.00,22.3,21.3,00.0,31.0,24.0,04.9,0000.0,0001.17,0003.42,0000.76
2023-03-01 09:02:00,,0815.8,5.00,0.00,22.3,21.1,00.0,31.0,24.0,04.8,0000.0,0001.17,0003.44,0000.76
2023-03-01 09:03:00,,0815.7,5.00,0.00,22.3,20.9,00.0,31.0,24.0,04.7,0000.0,0001.21,0003.55,0000.77
2023-03-01 09:04:00,,0815.7,4.99,0.00,22.3,20.8,00.0,31.0,23.9,04.7,0000.0,0001.21,0003.96,0000.76
2023-03-01 09:05:00,,0815.7,5.00,0.00,22.3,20.7,00.0,31.0,23.9,04.7,0000.0,0001.22,0003.73,0000.76
2023-03-01 09:06:00,,0815.6,5.00,0.00,22.2,20.6,00.0,31.0,23.9,04.8,0000.0,0001.19,0002.95,0000.76
2023-03-01 09:07:00,,0815.8,5.01,0.00,22.2,20.5,00.0,31.0,23.9,04.8,0000.0,0001.16,0002.84,0000.75
2023-03-01 09:08:00,,0815.6,4.99,0.00,22.2,20.6,00.0,31.0,23.8,04.8,0000.0,0001.18,0002.88,0000.75
2023-03-01 09:09:00,,0815.7,5.00,0.00,22.2,21.6,00.0,31.0,24.0,04.7,0000.0,0001.21,0002.93,0000.74
2023-03-01 09:10:00,,0815.7,4.99,0.00,22.3,22.6,00.0,31.0,24.3,04.9,0000.0,0001.22,0002.65,0000.74
2023-03-01 09:11:00,,0815.7,5.01,0.00,22.5,23.1,00.0,31.0,24.4,04.7,0000.0,0001.25,0002.53,0000.75
2023-03-01 09:12:00,,0815.7,4.99,0.00,22.5,22.6,00.0,31.1,24.3,04.7,0000.0,0001.21,0002.46,0000.74
2023-03-01 09:13:00,,0815.6,4.97,0.00,22.5,22.0,00.0,31.1,24.2,04.7,0000.0,0001.18,0002.38,0000.74
2023-03-01 09:14:00,,0815.7,5.01,0.00,22.4,21.7,00.0,31.1,24.2,04.7,0000.0,0001.14,0002.29,0000.73
2023-03-01 09:15:00,,0816.1,5.00,0.00,22.4,21.4,00.0,31.1,24.1,04.8,0000.0,0001.15,0001.90,0000.73
2023-03-01 09:16:00,,0816.0,5.00,0.00,22.4,21.2,00.0,31.1,24.1,04.8,0000.0,0001.20,0002.02,0000.73
2023-03-01 09:17:00,,0816.1,4.99,0.00,22.4,21.0,00.0,31.1,24.0,04.9,0000.0,0001.20,0002.10,0000.73
2023-03-01 09:18:00,,0815.9,5.00,0.00,22.3,20.9,00.0,31.1,24.0,04.9,0000.0,0001.26,0002.29,0000.73
2023-03-01 09:19:00,,0815.7,5.00,0.00,22.3,20.7,00.0,31.1,24.0,04.9,0000.0,0001.27,0002.33,0000.74
2023-03-01 09:20:00,,0815.8,5.01,0.00,22.3,20.7,00.0,31.1,23.9,04.9,0000.0,0001.26,0002.31,0000.75
2023-03-01 09:21:00,,0815.6,5.00,0.00,22.3,20.6,00.0,31.1,23.9,04.8,0000.0,0001.22,0002.21,0000.75
2023-03-01 09:22:00,,0815.4,5.01,0.00,22.2,20.5,00.0,31.0,23.9,04.8,0000.0,0001.16,0002.02,0000.74
2023-03-01 09:23:00,,0815.4,5.00,0.00,22.2,20.5,00.0,31.0,23.9,04.7,0000.0,0001.13,0001.93,0000.75
2023-03-01 09:24:00,,0815.4,5.00,0.00,22.2,20.4,00.0,31.0,23.8,04.7,0000.0,0001.14,0001.97,0000.75
2023-03-01 09:25:00,,0815.3,5.00,0.00,22.2,20.9,00.0,31.0,23.9,04.7,0000.0,0001.16,0002.05,0000.74
2023-03-01 09:26:00,,0815.4,5.01,0.00,22.3,22.1,00.0,31.0,24.2,04.7,0000.0,0001.15,0002.12,0000.74
2023-03-01 09:27:00,,0815.3,5.00,0.00,22.4,23.1,00.0,31.0,24.4,04.6,0000.0,0001.11,0002.19,0000.73
2023-03-01 09:28:00,,0815.4,5.00,0.00,22.5,22.9,00.0,31.0,24.5,04.6,0000.0,0001.11,0002.18,0000.74
2023-03-01 09:29:00,,0815.3,5.00,0.00,22.5,22.4,00.0,31.1,24.4,04.7,0000.0,0001.09,0002.07,0000.74
2023-03-01 09:30:00,,0815.3,5.03,0.00,22.5,22.0,00.0,31.1,24.3,04.9,0000.0,0001.05,0001.96,0000.74
2023-03-01 09:31:00,,0815.3,5.00,0.00,22.5,21.6,00.0,31.1,24.2,05.1,0000.0,0001.05,0001.98,0000.73
2023-03-01 09:32:00,,0815.3,5.00,0.00,22.4,21.3,00.0,31.1,24.1,05.1,0000.0,0001.08,0002.05,0000.74
2023-03-01 09:33:00,,0815.3,4.99,0.00,22.4,21.1,00.0,31.1,24.1,05.1,0000.0,0001.11,0002.17,0000.75
2023-03-01 09:34:00,,0815.4,5.00,0.00,22.4,20.9,00.0,31.1,24.0,05.1,0000.0,0001.17,0002.39,0000.74
2023-03-01 09:35:00,,0815.3,5.03,0.00,22.4,20.8,00.0,31.1,24.0,05.1,0000.0,0001.18,0002.39,0000.74
2023-03-01 09:36:00,,0815.3,5.00,0.00,22.3,20.7,00.0,31.1,24.0,04.9,0000.0,0001.16,0002.85,0000.73
2023-03-01 09:37:00,,0815.4,5.03,0.00,22.3,20.6,00.0,31.1,23.9,05.0,0000.0,0001.13,0003.13,0000.73
2023-03-01 09:38:00,,0815.4,5.04,0.00,22.3,20.5,00.0,31.1,23.9,05.0,0000.0,0001.15,0003.89,0000.74
2023-03-01 09:39:00,,0815.4,4.98,0.00,22.2,20.6,00.0,31.1,23.9,05.1,0000.0,0001.14,0003.74,0000.74
2023-03-01 09:40:00,,0815.5,5.00,0.00,22.3,21.6,00.0,31.0,24.1,04.9,0000.0,0001.13,0003.73,0000.74
2023-03-01 09:41:00,,0815.5,5.01,0.00,22.4,22.7,00.0,31.1,24.4,05.0,0000.0,0001.11,0004.01,0000.74
2023-03-01 09:42:00,,0815.4,4.97,0.00,22.5,23.1,00.0,31.1,24.5,05.1,0000.0,0001.09,0004.65,0000.73
2023-03-01 09:43:00,,0815.4,5.00,0.00,22.6,22.5,00.0,31.1,24.4,05.1,0000.0,0001.08,0004.61,0000.73
2023-03-01 09:44:00,,0815.5,4.97,0.00,22.5,22.0,00.0,31.2,24.3,05.1,0000.0,0001.07,0004.61,0000.71
2023-03-01 09:45:00,,0815.5,5.01,0.00,22.5,21.6,00.0,31.2,24.2,05.1,0000.0,0001.02,0004.47,0000.71
2023-03-01 09:46:00,,0815.7,4.99,0.00,22.5,21.2,00.0,31.2,24.1,05.1,0000.0,0001.01,0005.60,0000.71
2023-03-01 09:47:00,,0815.8,5.00,0.00,22.4,20.9,00.0,31.1,23.9,05.1,0000.0,0001.04,0005.74,0000.72
2023-03-01 09:48:00,,0815.7,5.01,0.00,22.3,20.6,00.0,31.1,23.8,05.1,0000.0,0001.08,0005.61,0000.74
2023-03-01 09:49:00,,0815.7,5.00,0.00,22.3,20.4,00.0,31.1,23.8,05.1,0000.0,0001.04,0004.30,0000.74
2023-03-01 09:50:00,,0815.7,4.99,0.00,22.2,20.3,00.0,31.1,23.8,05.0,0000.0,0001.05,0004.31,0000.74
2023-03-01 09:51:00,,0815.9,5.00,0.00,22.2,20.2,00.0,31.1,23.7,04.9,0000.0,0001.08,0004.45,0000.74
2023-03-01 09:52:00,,0815.8,4.99,0.00,22.1,20.1,00.0,31.0,23.7,04.9,0000.0,0001.13,0004.63,0000.74
2023-03-01 09:53:00,,0815.5,5.01,0.00,22.1,20.3,00.0,31.0,23.7,04.9,0000.0,0001.17,0003.85,0000.75
2023-03-01 09:54:00,,0815.5,5.01,0.00,22.2,21.5,00.0,31.0,24.0,04.9,0000.0,0001.18,0003.89,0000.75
2023-03-01 09:55:00,,0815.4,4.99,0.00,22.3,22.7,00.0,31.0,24.3,04.8,0000.0,0001.17,0003.83,0000.75
2023-03-01 09:56:00,,0815.4,5.02,0.00,22.4,22.9,00.0,31.0,24.4,04.7,0000.0,0001.19,0003.85,0000.74
2023-03-01 09:57:00,,0815.4,5.00,0.00,22.4,22.2,00.0,31.1,24.2,04.5,0000.0,0001.16,0003.09,0000.74
2023-03-01 09:58:00,,0815.5,4.99,0.00,22.4,21.6,00.0,31.1,24.1,04.6,0000.0,0001.12,0002.07,0000.73
2023-03-01 09:59:00,,0815.4,5.00,0.00,22.3,21.1,00.0,31.1,23.9,04.6,0000.0,0001.10,0002.06,0000.71
